Location: Silverdale
(47.6506°N, 122.6941°W)
Time: 15:32:54
(UTC+00:00)

Courier 1B Rocket - Visible Passes

Search period start: 03 October 2022 00:00
Search period end: 13 October 2022 00:00
Orbit: 920 x 1202 km, 28.2° (Epoch: 02 October)

Date Brightness Start Highest point End Pass type
(mag) Time Alt. Az. Time Alt. Az. Time Alt. Az.
03 Oct 7.0 03:30:22 10° S 03:31:28 10° S 03:32:32 10° SSE visible
04 Oct 7.0 04:20:17 10° SSW 04:21:39 12° S 04:21:39 12° S visible
05 Oct 6.9 03:19:41 10° SSW 03:22:13 12° S 03:24:22 11° SSE visible
06 Oct 7.1 02:19:30 10° S 02:21:33 11° S 02:23:34 10° SSE visible
06 Oct 7.0 04:10:55 10° SSW 04:13:26 13° S 04:13:26 13° S visible
07 Oct 7.0 03:09:54 10° SSW 03:12:59 13° S 03:15:59 10° SSE visible
08 Oct 7.1 02:09:10 10° SSW 02:12:17 13° S 02:15:20 10° SSE visible
08 Oct 7.0 04:01:56 10° SSW 04:04:23 12° S 04:05:11 12° S visible
09 Oct 7.1 03:00:29 10° SSW 03:03:44 14° S 03:06:52 10° SSE visible
10 Oct 7.1 01:59:24 10° SSW 02:03:01 15° S 02:06:31 10° SSE visible
10 Oct 7.2 03:53:36 10° SSW 03:55:06 11° SSW 03:56:35 10° S visible
11 Oct 7.2 02:51:25 10° SW 02:54:26 13° S 02:57:23 10° SSE visible
